DLH4KC EDDF-EDDH

Flight info

Callsign DLH4KC
Flight time 0h 50m
Altitude 35000
Route MARUN3W/25C MARUN Y150 TOLGI DCT SAS/N0449F340 P605 NOLGO NOLGO3P
Aircraft A321/M-SDE3FGHIRWY/LB1

Departure

Time 2026-04-16 21:13
Airport Frankfurt Main Airport (EDDF)

Arrival

Time 2026-04-16 22:03
Airport Hamburg Helmut Schmidt Airport (EDDH)
Time Latitude Longitude Altitude Speed Heading
2026-04-16 20:37 50.04636 8.56667 356 ft 0 kts 115°
2026-04-16 20:58 50.04641 8.56649 363 ft 4 kts 115°
2026-04-16 20:58 50.04652 8.56612 363 ft 4 kts 117°
2026-04-16 20:58 50.04667 8.56579 363 ft 4 kts 142°
2026-04-16 20:59 50.04689 8.56563 360 ft 4 kts 181°
2026-04-16 20:59 50.04712 8.56573 356 ft 4 kts 222°
2026-04-16 20:59 50.04718 8.56581 360 ft 0 kts 229°
2026-04-16 21:02 50.04716 8.56578 360 ft 1 kts 229°
2026-04-16 21:03 50.04684 8.56539 356 ft 5 kts 209°
2026-04-16 21:03 50.04648 8.56510 360 ft 7 kts 206°
2026-04-16 21:03 50.04599 8.56474 364 ft 9 kts 205°
2026-04-16 21:03 50.04539 8.56428 356 ft 10 kts 215°
2026-04-16 21:04 50.04503 8.56329 359 ft 11 kts 249°
2026-04-16 21:04 50.04474 8.56207 358 ft 13 kts 250°
2026-04-16 21:04 50.04444 8.56086 358 ft 11 kts 243°
2026-04-16 21:04 50.04382 8.56036 358 ft 11 kts 172°
2026-04-16 21:05 50.04305 8.56082 360 ft 13 kts 137°
2026-04-16 21:05 50.04306 8.56219 358 ft 13 kts 71°
2026-04-16 21:05 50.04339 8.56359 359 ft 14 kts 69°
2026-04-16 21:05 50.04373 8.56501 362 ft 14 kts 69°
2026-04-16 21:06 50.04409 8.56650 362 ft 15 kts 69°
2026-04-16 21:06 50.04445 8.56800 365 ft 15 kts 70°
2026-04-16 21:06 50.04481 8.56955 360 ft 16 kts 70°
2026-04-16 21:06 50.04524 8.57132 358 ft 18 kts 69°
2026-04-16 21:07 50.04567 8.57313 359 ft 16 kts 69°
2026-04-16 21:07 50.04596 8.57445 359 ft 11 kts 83°
2026-04-16 21:07 50.04556 8.57518 364 ft 8 kts 154°
2026-04-16 21:07 50.04508 8.57555 363 ft 7 kts 152°
2026-04-16 21:08 50.04477 8.57603 365 ft 5 kts 114°
2026-04-16 21:08 50.04468 8.57668 369 ft 7 kts 97°
2026-04-16 21:08 50.04481 8.57762 368 ft 11 kts 70°
2026-04-16 21:08 50.04512 8.57892 365 ft 13 kts 70°
2026-04-16 21:09 50.04536 8.58007 365 ft 11 kts 83°
2026-04-16 21:09 50.04502 8.58078 369 ft 7 kts 154°
2026-04-16 21:09 50.04485 8.58088 365 ft 0 kts 159°
2026-04-16 21:10 50.04481 8.58090 369 ft 2 kts 160°
2026-04-16 21:10 50.04461 8.58101 367 ft 3 kts 160°
2026-04-16 21:10 50.04440 8.58114 369 ft 3 kts 160°
2026-04-16 21:11 50.04422 8.58122 369 ft 4 kts 165°
2026-04-16 21:11 50.04378 8.58108 371 ft 9 kts 218°
2026-04-16 21:11 50.04360 8.58059 368 ft 0 kts 250°
2026-04-16 21:11 50.04360 8.58055 369 ft 2 kts 250°
2026-04-16 21:12 50.04331 8.57932 365 ft 38 kts 250°
2026-04-16 21:12 50.04150 8.57172 368 ft 110 kts 249°
2026-04-16 21:12 50.03814 8.55747 355 ft 167 kts 250°
2026-04-16 21:12 50.03365 8.53970 848 ft 178 kts 249°
2026-04-16 21:13 50.02930 8.52175 1582 ft 181 kts 249°
2026-04-16 21:13 50.02439 8.50305 2029 ft 196 kts 238°
2026-04-16 21:13 50.01453 8.48769 2411 ft 208 kts 211°
2026-04-16 21:13 50.00082 8.47999 2955 ft 209 kts 188°
2026-04-16 21:14 49.98646 8.47733 3605 ft 208 kts 188°
2026-04-16 21:14 49.97205 8.47406 4211 ft 210 kts 189°
2026-04-16 21:14 49.95774 8.47039 4882 ft 209 kts 193°
2026-04-16 21:14 49.94321 8.46389 5187 ft 227 kts 198°
2026-04-16 21:15 49.92747 8.45624 5504 ft 246 kts 201°
2026-04-16 21:15 49.91362 8.44107 6216 ft 247 kts 233°
2026-04-16 21:15 49.90661 8.41688 6999 ft 249 kts 261°
2026-04-16 21:15 49.90755 8.39021 7731 ft 252 kts 288°
2026-04-16 21:16 49.91262 8.37397 8214 ft 255 kts 306°
2026-04-16 21:16 49.92609 8.35603 8912 ft 261 kts 332°
2026-04-16 21:16 49.94321 8.34412 9181 ft 281 kts 336°
2026-04-16 21:16 49.96146 8.33230 9233 ft 286 kts 336°
2026-04-16 21:17 49.98584 8.31683 9239 ft 286 kts 336°
2026-04-16 21:17 49.99805 8.30908 9239 ft 286 kts 336°
2026-04-16 21:17 50.01643 8.29735 9237 ft 286 kts 337°
2026-04-16 21:17 50.03580 8.28867 9237 ft 287 kts 350°
2026-04-16 21:18 50.05553 8.28690 9241 ft 289 kts
2026-04-16 21:18 50.07537 8.29196 9235 ft 290 kts 15°
2026-04-16 21:18 50.09451 8.30185 9234 ft 290 kts 18°
2026-04-16 21:18 50.11367 8.31193 9236 ft 290 kts 18°
2026-04-16 21:19 50.13282 8.32199 9244 ft 291 kts 18°
2026-04-16 21:19 50.15218 8.33209 9552 ft 294 kts 17°
2026-04-16 21:19 50.17157 8.34224 10314 ft 296 kts 17°
2026-04-16 21:19 50.19182 8.35286 10531 ft 318 kts 17°
2026-04-16 21:20 50.21355 8.36423 10662 ft 340 kts 17°
2026-04-16 21:20 50.23638 8.37622 11049 ft 350 kts 17°
2026-04-16 21:20 50.25965 8.38848 11655 ft 354 kts 17°
2026-04-16 21:20 50.28304 8.40080 12305 ft 356 kts 17°
2026-04-16 21:21 50.30656 8.41326 12940 ft 359 kts 17°
2026-04-16 21:21 50.32996 8.42592 13576 ft 361 kts 17°
2026-04-16 21:21 50.35382 8.43901 14214 ft 364 kts 17°
2026-04-16 21:21 50.37774 8.45217 14770 ft 366 kts 17°
2026-04-16 21:22 50.40191 8.46544 15328 ft 369 kts 16°
2026-04-16 21:22 50.42622 8.47877 15868 ft 371 kts 16°
2026-04-16 21:22 50.45073 8.49218 16407 ft 374 kts 16°
2026-04-16 21:22 50.47537 8.50565 16951 ft 377 kts 16°
2026-04-16 21:23 50.50043 8.51864 17490 ft 379 kts 14°
2026-04-16 21:23 50.52574 8.53090 18035 ft 381 kts 13°
2026-04-16 21:23 50.55127 8.54281 18547 ft 384 kts 13°
2026-04-16 21:23 50.57664 8.55454 18989 ft 386 kts 13°
2026-04-16 21:24 50.60251 8.56660 19435 ft 389 kts 13°
2026-04-16 21:24 50.62851 8.57885 19881 ft 391 kts 13°
2026-04-16 21:24 50.65463 8.59130 20313 ft 393 kts 13°
2026-04-16 21:24 50.68089 8.60394 20762 ft 396 kts 13°
2026-04-16 21:25 50.70728 8.61672 21189 ft 398 kts 13°
2026-04-16 21:25 50.73390 8.62961 21605 ft 401 kts 13°
2026-04-16 21:25 50.76064 8.64255 22035 ft 403 kts 13°
2026-04-16 21:25 50.78731 8.65670 22444 ft 408 kts 19°
2026-04-16 21:26 50.81256 8.67785 22847 ft 416 kts 30°
2026-04-16 21:26 50.83540 8.70654 23258 ft 423 kts 40°
2026-04-16 21:26 50.85489 8.74188 23661 ft 430 kts 49°
2026-04-16 21:26 50.87285 8.77936 24024 ft 433 kts 49°
2026-04-16 21:27 50.89159 8.81654 24357 ft 431 kts 41°
2026-04-16 21:27 50.91471 8.84613 24685 ft 424 kts 26°
2026-04-16 21:27 50.94148 8.86428 25023 ft 416 kts
2026-04-16 21:27 50.96968 8.87449 25360 ft 418 kts 11°
2026-04-16 21:28 50.99743 8.88977 25711 ft 424 kts 18°
2026-04-16 21:28 51.02425 8.90982 26064 ft 429 kts 22°
2026-04-16 21:28 51.05065 8.93228 26407 ft 432 kts 23°
2026-04-16 21:28 51.07700 8.95524 26736 ft 433 kts 23°
2026-04-16 21:29 51.10373 8.97777 27089 ft 434 kts 21°
2026-04-16 21:29 51.13071 8.99933 27440 ft 434 kts 20°
2026-04-16 21:29 51.15765 9.01984 27746 ft 436 kts 19°
2026-04-16 21:29 51.18520 9.04016 28104 ft 437 kts 19°
2026-04-16 21:30 51.21291 9.06036 28435 ft 438 kts 18°
2026-04-16 21:30 51.24076 9.08074 28762 ft 440 kts 19°
2026-04-16 21:30 51.26857 9.10130 29089 ft 442 kts 19°
2026-04-16 21:30 51.29653 9.12220 29392 ft 443 kts 19°
2026-04-16 21:31 51.32450 9.14330 29685 ft 445 kts 19°
2026-04-16 21:31 51.35249 9.16450 29963 ft 446 kts 19°
2026-04-16 21:31 51.38058 9.18587 30232 ft 448 kts 19°
2026-04-16 21:31 51.40875 9.20745 30464 ft 449 kts 19°
2026-04-16 21:32 51.43679 9.22904 30771 ft 448 kts 19°
2026-04-16 21:32 51.46452 9.25043 31081 ft 446 kts 19°
2026-04-16 21:32 51.49282 9.27228 31225 ft 444 kts 19°
2026-04-16 21:32 51.51970 9.29315 31249 ft 428 kts 19°
2026-04-16 21:33 51.54644 9.31389 31250 ft 426 kts 18°
2026-04-16 21:33 51.60006 9.35505 31250 ft 426 kts 18°
2026-04-16 21:34 51.65363 9.39626 31251 ft 426 kts 18°
2026-04-16 21:34 51.70705 9.43764 31249 ft 426 kts 18°
2026-04-16 21:35 51.76050 9.47924 31257 ft 426 kts 18°
2026-04-16 21:35 51.81354 9.52060 31263 ft 426 kts 18°
2026-04-16 21:36 51.86671 9.56283 31261 ft 426 kts 19°
2026-04-16 21:36 51.91947 9.60673 31267 ft 427 kts 20°
2026-04-16 21:37 51.97217 9.65104 31264 ft 426 kts 20°
2026-04-16 21:37 52.02492 9.69516 31258 ft 426 kts 20°
2026-04-16 21:38 52.07736 9.73872 31271 ft 425 kts 20°
2026-04-16 21:38 52.13004 9.78260 31272 ft 425 kts 20°
2026-04-16 21:39 52.18270 9.82686 31269 ft 425 kts 20°
2026-04-16 21:39 52.23533 9.87115 31265 ft 424 kts 18°
2026-04-16 21:40 52.29010 9.90158 31247 ft 413 kts
2026-04-16 21:40 52.31768 9.91360 30888 ft 409 kts
2026-04-16 21:40 52.34507 9.92560 30394 ft 405 kts
2026-04-16 21:40 52.37216 9.93753 29863 ft 400 kts
2026-04-16 21:41 52.39886 9.94933 29393 ft 394 kts
2026-04-16 21:41 52.42510 9.96095 28931 ft 388 kts
2026-04-16 21:41 52.45102 9.97242 28473 ft 383 kts
2026-04-16 21:41 52.47659 9.98370 28024 ft 378 kts
2026-04-16 21:42 52.50150 9.99469 27587 ft 373 kts
2026-04-16 21:42 52.52644 10.00572 27146 ft 368 kts
2026-04-16 21:42 52.55111 10.01667 26698 ft 365 kts
2026-04-16 21:42 52.57557 10.02755 26255 ft 362 kts
2026-04-16 21:43 52.59976 10.03835 25832 ft 358 kts
2026-04-16 21:43 52.62367 10.04903 25409 ft 355 kts
2026-04-16 21:43 52.64742 10.05964 25001 ft 352 kts
2026-04-16 21:43 52.67087 10.07014 24605 ft 349 kts
2026-04-16 21:44 52.69424 10.08061 24212 ft 347 kts
2026-04-16 21:44 52.71722 10.09094 23819 ft 346 kts
2026-04-16 21:44 52.74035 10.10137 23390 ft 344 kts
2026-04-16 21:44 52.76333 10.11168 23007 ft 341 kts
2026-04-16 21:45 52.78644 10.11794 22615 ft 333 kts 358°
2026-04-16 21:45 52.80942 10.11896 22235 ft 329 kts 356°
2026-04-16 21:45 52.83231 10.11961 21841 ft 328 kts 356°
2026-04-16 21:45 52.85507 10.12033 21454 ft 326 kts 356°
2026-04-16 21:46 52.87772 10.12109 21062 ft 324 kts 356°
2026-04-16 21:46 52.90022 10.12185 20658 ft 322 kts 356°
2026-04-16 21:46 52.92258 10.12258 20263 ft 320 kts 356°
2026-04-16 21:46 52.94454 10.12330 19860 ft 318 kts 356°
2026-04-16 21:47 52.96663 10.12404 19455 ft 317 kts 356°
2026-04-16 21:47 52.98824 10.12478 19052 ft 315 kts 356°
2026-04-16 21:47 53.01038 10.12556 18641 ft 313 kts 356°
2026-04-16 21:47 53.03213 10.12631 18199 ft 311 kts 356°
2026-04-16 21:48 53.05377 10.12697 17781 ft 311 kts 356°
2026-04-16 21:48 53.07537 10.12761 17381 ft 310 kts 356°
2026-04-16 21:48 53.09695 10.12824 16974 ft 309 kts 356°
2026-04-16 21:48 53.11843 10.12891 16568 ft 309 kts 357°
2026-04-16 21:49 53.13962 10.12961 16163 ft 308 kts 357°
2026-04-16 21:49 53.16106 10.13032 15764 ft 307 kts 357°
2026-04-16 21:49 53.18247 10.13108 15362 ft 307 kts 357°
2026-04-16 21:49 53.20381 10.13186 14957 ft 307 kts 358°
2026-04-16 21:50 53.22514 10.13264 14550 ft 306 kts 357°
2026-04-16 21:50 53.24646 10.13339 14140 ft 306 kts 358°
2026-04-16 21:50 53.26771 10.13410 13709 ft 306 kts 358°
2026-04-16 21:50 53.28892 10.13480 13297 ft 304 kts 358°
2026-04-16 21:51 53.31002 10.13548 12904 ft 303 kts 358°
2026-04-16 21:51 53.33085 10.13615 12499 ft 302 kts 358°
2026-04-16 21:51 53.35187 10.13683 12104 ft 301 kts 358°
2026-04-16 21:51 53.37273 10.13749 11705 ft 300 kts 358°
2026-04-16 21:52 53.39361 10.13812 11315 ft 298 kts 357°
2026-04-16 21:52 53.41428 10.13610 10927 ft 297 kts 353°
2026-04-16 21:52 53.43480 10.13350 10560 ft 294 kts 353°
2026-04-16 21:52 53.45500 10.13099 10329 ft 288 kts 353°
2026-04-16 21:53 53.47503 10.12846 10031 ft 291 kts 353°
2026-04-16 21:53 53.49526 10.12588 9619 ft 290 kts 353°
2026-04-16 21:53 53.51539 10.12331 9136 ft 291 kts 353°
2026-04-16 21:53 53.53517 10.12079 8833 ft 286 kts 353°
2026-04-16 21:54 53.55464 10.11837 8628 ft 278 kts 352°
2026-04-16 21:54 53.57395 10.11856 8282 ft 278 kts
2026-04-16 21:54 53.59165 10.13020 8170 ft 274 kts 31°
2026-04-16 21:54 53.60493 10.15309 7859 ft 276 kts 52°
2026-04-16 21:55 53.61631 10.17909 7501 ft 276 kts 50°
2026-04-16 21:55 53.62810 10.20444 7201 ft 274 kts 49°
2026-04-16 21:55 53.63968 10.22823 6956 ft 271 kts 47°
2026-04-16 21:55 53.65180 10.25231 6691 ft 268 kts 46°
2026-04-16 21:56 53.66381 10.27623 6374 ft 266 kts 47°
2026-04-16 21:56 53.67562 10.30008 6075 ft 265 kts 47°
2026-04-16 21:56 53.68732 10.32399 5808 ft 262 kts 48°
2026-04-16 21:56 53.70006 10.34495 5616 ft 249 kts 26°
2026-04-16 21:57 53.71570 10.35222 5481 ft 229 kts 353°
2026-04-16 21:57 53.73035 10.34508 5325 ft 212 kts 326°
2026-04-16 21:57 53.74153 10.33074 5288 ft 193 kts 315°
2026-04-16 21:57 53.75127 10.31555 5172 ft 192 kts 314°
2026-04-16 21:58 53.76052 10.29954 4955 ft 188 kts 304°
2026-04-16 21:58 53.76592 10.28017 4646 ft 184 kts 278°
2026-04-16 21:58 53.76424 10.25893 4438 ft 188 kts 245°
2026-04-16 21:58 53.75575 10.24100 4150 ft 206 kts 228°
2026-04-16 21:59 53.74532 10.22346 3805 ft 216 kts 228°
2026-04-16 21:59 53.73561 10.20418 3494 ft 216 kts 233°
2026-04-16 21:59 53.72957 10.19093 3336 ft 214 kts 235°
2026-04-16 21:59 53.72605 10.18288 3236 ft 212 kts 237°
2026-04-16 22:00 53.71939 10.16687 2825 ft 220 kts 237°
2026-04-16 22:00 53.71052 10.14637 2587 ft 214 kts 231°
2026-04-16 22:00 53.70023 10.12910 2215 ft 202 kts 224°
2026-04-16 22:00 53.69115 10.11230 1925 ft 188 kts 233°
2026-04-16 22:01 53.68341 10.09524 1677 ft 180 kts 235°
2026-04-16 22:01 53.67586 10.07938 1460 ft 168 kts 230°
2026-04-16 22:01 53.66819 10.06530 1181 ft 158 kts 229°
2026-04-16 22:01 53.66119 10.05142 921 ft 154 kts 232°
2026-04-16 22:02 53.65464 10.03743 673 ft 150 kts 232°
2026-04-16 22:02 53.64821 10.02388 469 ft 146 kts 231°
2026-04-16 22:02 53.64159 10.01094 264 ft 145 kts 229°
2026-04-16 22:02 53.63517 9.99804 85 ft 142 kts 231°
2026-04-16 22:03 53.62962 9.98668 48 ft 106 kts 230°
2026-04-16 22:03 53.62625 9.97989 46 ft 53 kts 230°
2026-04-16 22:03 53.62492 9.97783 44 ft 15 kts 175°
2026-04-16 22:03 53.62426 9.97904 44 ft 15 kts 93°
2026-04-16 22:04 53.62458 9.98077 42 ft 16 kts 59°
2026-04-16 22:04 53.62524 9.98232 45 ft 17 kts 52°
2026-04-16 22:04 53.62603 9.98385 46 ft 18 kts 48°
2026-04-16 22:04 53.62687 9.98546 46 ft 19 kts 49°
2026-04-16 22:05 53.62775 9.98721 46 ft 20 kts 50°
2026-04-16 22:05 53.62865 9.98906 47 ft 21 kts 50°